Change the Weather History Date:

Sunday, August 4, 2013

  Actual Average Record
Temperature  
Mean Temperature 70 °F 75 °F  
Max Temperature 80 °F 85 °F 102 °F (1930)
Min Temperature 60 °F 66 °F 48 °F (1965)
Degree Days  
Heating Degree Days 0 0  
Month to date heating degree days 0 0  
Since 1 June heating degree days 0 13  
Since 1 July heating degree days 0 0  
Cooling Degree Days 5 10  
Month to date cooling degree days 28 40  
Year to date cooling degree days 733 694  
Since 1 June cooling degree days 586 584  
Growing Degree Days 22 (Base 50)    
Moisture  
Dew Point 63 °F    
Average Humidity 74    
Maximum Humidity 100    
Minimum Humidity 48    
Precipitation  
Precipitation 0.00 in 0.13 in 1.28 in (2010)
Month to date precipitation 0.12 0.54  
Year to date precipitation 30.04 27.91  
Snow  
Snow 0.00 in - - ()
Month to date snowfall 0.0  
Since 1 September snowfall 25.3  
Snow Depth 0.00 in    
Sea Level Pressure  
Sea Level Pressure 30.05 in    
Wind  
Wind Speed 2 mph (North)    
Max Wind Speed 13 mph    
Max Gust Speed 16 mph    
Visibility 6 miles    
Events Fog    
T = Trace of Precipitation, MM = Missing Value Source: NWS Daily Summary

Daily Weather History Graph

Daily Weather History Graph

Search for Another Location

Airport or City:

Trip Planner

Search our weather history database for the weather conditions in past years. The results will help you decide how hot, cold, wet, or windy it might be!

Date:

Astronomy

Aug. 04, 2013 Rise Set
Actual Time 6:31 AM EDT 8:32 PM EDT
Civil Twilight 6:02 AM EDT 9:01 PM EDT
Nautical Twilight 5:26 AM EDT 9:37 PM EDT
Astronomical Twilight 4:48 AM EDT 10:15 PM EDT
Moon 4:31 AM EDT (8/4) 6:55 PM EDT (8/4)
Length of Visible Light 14h 59m
Length of Day
14h 01m
Waning Crescent, 5% of the Moon is Illuminated
Aug 4
Waning Crescent
Aug 6
New
Aug 14
First Quarter
Aug 20
Full
Aug 28
Last Quarter

Hourly Weather History & Observations

Time (EDT) Temp. Dew Point Humidity Pressure Visibility Wind Dir Wind Speed Gust Speed Precip Events Conditions
12:54 AM 68.0 °F 68.0 °F 100% 30.00 in 0.2 mi Calm Calm - N/A Fog Fog
1:54 AM 68.0 °F 68.0 °F 100% 30.00 in 0.2 mi Calm Calm - N/A Fog Fog
2:54 AM 68.0 °F 68.0 °F 100% 30.00 in 0.2 mi Calm Calm - N/A Fog Fog
3:54 AM 66.9 °F 66.9 °F 100% 30.00 in 0.2 mi Calm Calm - N/A Fog Fog
4:54 AM 66.9 °F 66.9 °F 100% 30.01 in 0.2 mi Calm Calm - N/A Fog Fog
5:54 AM 66.9 °F 66.9 °F 100% 30.02 in 0.2 mi Calm Calm - N/A Fog Fog
6:54 AM 66.0 °F 66.0 °F 100% 30.03 in 0.2 mi Calm Calm - N/A Fog Fog
7:54 AM 66.9 °F 66.9 °F 100% 30.04 in 0.2 mi Calm Calm - N/A Fog Fog
8:03 AM 66.2 °F 66.2 °F 100% 30.06 in 0.5 mi Calm Calm - N/A Fog Fog
8:42 AM 66.2 °F 66.2 °F 100% 30.07 in 0.5 mi Calm Calm - N/A Fog Fog
8:45 AM 68.0 °F 68.0 °F 100% 30.07 in 2.0 mi Calm Calm - N/A   Mostly Cloudy
8:54 AM 66.9 °F 66.9 °F 100% 30.05 in 2.0 mi Calm Calm - N/A   Mostly Cloudy
9:18 AM 68.0 °F 68.0 °F 100% 30.07 in 6.0 mi Calm Calm - N/A   Mostly Cloudy
9:54 AM 69.1 °F 66.0 °F 90% 30.06 in 10.0 mi SW 3.5 mph - N/A   Scattered Clouds
10:54 AM 73.9 °F 64.9 °F 73% 30.06 in 10.0 mi NNW 3.5 mph - N/A   Scattered Clouds
11:54 AM 77.0 °F 63.0 °F 62% 30.07 in 10.0 mi Calm Calm - N/A   Scattered Clouds
12:54 PM 75.9 °F 61.0 °F 60% 30.06 in 10.0 mi NE 6.9 mph - N/A   Scattered Clouds
1:54 PM 77.0 °F 61.0 °F 58% 30.06 in 10.0 mi NNE 5.8 mph - N/A   Mostly Cloudy
2:54 PM 75.9 °F 59.0 °F 56% 30.05 in 10.0 mi North 5.8 mph - N/A   Scattered Clouds
3:54 PM 79.0 °F 57.9 °F 48% 30.04 in 10.0 mi NW 5.8 mph - N/A   Scattered Clouds
4:54 PM 78.1 °F 59.0 °F 52% 30.05 in 10.0 mi North 5.8 mph - N/A   Scattered Clouds
5:54 PM 78.1 °F 57.9 °F 50% 30.04 in 10.0 mi NNW 3.5 mph - N/A   Scattered Clouds
6:54 PM 77.0 °F 59.0 °F 54% 30.05 in 10.0 mi North 4.6 mph - N/A   Scattered Clouds
7:54 PM 73.9 °F 57.0 °F 55% 30.06 in 10.0 mi North 5.8 mph - N/A   Scattered Clouds
8:54 PM 69.1 °F 62.1 °F 78% 30.06 in 10.0 mi Calm Calm - N/A   Scattered Clouds
9:54 PM 64.9 °F 62.1 °F 90% 30.08 in 10.0 mi Calm Calm - N/A   Clear
10:54 PM 63.0 °F 61.0 °F 93% 30.08 in 10.0 mi Calm Calm - N/A   Clear
11:54 PM 60.1 °F 59.0 °F 96% 30.10 in 10.0 mi Calm Calm - N/A   Clear